﻿_id,日時,平均風速(m/s),平均風向,最大瞬間風速(m/s),最大風速時風向,気温(℃),湿度(%),10分間移動積算雨量(mm),1時間移動積算雨量(mm),日雨量(mm),累計雨量(mm),日射(日積算)(MJ/m2),日照(日積算)(min),現地気圧(hPa),海面気圧(hPa)
1,2021-05-03T00:00:00,0.5,南南西,1.3,南,9.1,84.5,0,0,2,4,9.12,121,1003.1,1017.3
2,2021-05-03T00:01:00,0.5,南南西,1.3,南,9.1,84.8,0,0,0,4,0,0,1003.1,1017.3
3,2021-05-03T00:02:00,0.4,南南西,1.3,南,9,84.4,0,0,0,4,0,0,1003.1,1017.3
4,2021-05-03T00:03:00,0.3,南南西,1,南南西,8.9,84.6,0,0,0,4,0,0,1003.1,1017.3
5,2021-05-03T00:04:00,0.3,南,0.9,南南西,8.9,85,0,0,0,4,0,0,1003.1,1017.3
6,2021-05-03T00:05:00,0.3,南,0.9,南南西,8.9,85.6,0,0,0,4,0,0,1003.2,1017.4
7,2021-05-03T00:06:00,0.3,南,0.9,南南西,8.8,85.9,0,0,0,4,0,0,1003.2,1017.4
8,2021-05-03T00:07:00,0.2,静穏,0.9,南,8.8,86,0,0,0,4,0,0,1003.2,1017.4
9,2021-05-03T00:08:00,0.2,静穏,0.9,南,8.9,86.6,0,0,0,4,0,0,1003.3,1017.5
10,2021-05-03T00:09:00,0.2,静穏,0.9,南,8.8,86.3,0,0,0,4,0,0,1003.3,1017.5
11,2021-05-03T00:10:00,0.2,静穏,0.9,南,8.9,86.2,0,0,0,4,0,0,1003.3,1017.5
12,2021-05-03T00:11:00,0.2,静穏,0.9,南,8.8,86.5,0,0,0,4,0,0,1003.3,1017.5
13,2021-05-03T00:12:00,0.3,南南西,1.6,西,8.7,86,0,0,0,4,0,0,1003.2,1017.4
14,2021-05-03T00:13:00,0.4,南西,1.7,西南西,8.5,86.1,0,0,0,4,0,0,1003.2,1017.4
15,2021-05-03T00:14:00,0.4,南西,1.7,西南西,8.5,86.4,0,0,0,4,0,0,1003.2,1017.4
16,2021-05-03T00:15:00,0.4,西南西,1.7,西南西,8.4,87,0,0,0,4,0,0,1003.2,1017.4
17,2021-05-03T00:16:00,0.4,西南西,1.7,西南西,8.4,87.3,0,0,0,4,0,0,1003.2,1017.4
18,2021-05-03T00:17:00,0.4,西南西,1.7,西南西,8.7,88.7,0,0,0,4,0,0,1003.2,1017.4
19,2021-05-03T00:18:00,0.5,西南西,1.7,西南西,8.5,88.5,0,0,0,4,0,0,1003.2,1017.4
20,2021-05-03T00:19:00,0.5,西,1.7,西南西,8.7,88.8,0,0,0,4,0,0,1003.2,1017.4
21,2021-05-03T00:20:00,0.5,西,1.7,西南西,8.6,88.3,0,0,0,4,0,0,1003.2,1017.4
22,2021-05-03T00:21:00,0.5,西,1.7,西南西,8.6,88.2,0,0,0,4,0,0,1003.2,1017.4
23,2021-05-03T00:22:00,0.6,西,1.7,西南西,8.7,88.6,0,0,0,4,0,0,1003.2,1017.4
24,2021-05-03T00:23:00,0.6,西,1.6,西,8.7,88.8,0,0,0,4,0,0,1003.2,1017.4
25,2021-05-03T00:24:00,0.7,西,1.9,西,8.6,88.3,0,0,0,4,0,0,1003.2,1017.4
26,2021-05-03T00:25:00,0.8,西,2.1,西,8.5,87.8,0,0,0,4,0,0,1003.2,1017.4
27,2021-05-03T00:26:00,1,西,2.1,西,8.4,87.8,0,0,0,4,0,0,1003.2,1017.4
28,2021-05-03T00:27:00,1.1,西,2.1,西,8.4,87.9,0,0,0,4,0,0,1003.2,1017.4
29,2021-05-03T00:28:00,1,西,2.1,西,8.3,88,0,0,0,4,0,0,1003.2,1017.4
30,2021-05-03T00:29:00,1.1,西,2.1,西,8.3,88.3,0,0,0,4,0,0,1003.2,1017.4
31,2021-05-03T00:30:00,1.1,西,2.1,西,8.3,88.5,0,0,0,4,0,0,1003.2,1017.4
32,2021-05-03T00:31:00,1.2,西,2.1,西,8.3,88.8,0,0,0,4,0,0,1003.2,1017.4
33,2021-05-03T00:32:00,1,西,2.1,西,8.2,88.8,0,0,0,4,0,0,1003.2,1017.4
34,2021-05-03T00:33:00,0.9,西南西,2.1,西,8.3,89,0,0,0,4,0,0,1003.3,1017.5
35,2021-05-03T00:34:00,0.8,西南西,2.1,西,8.4,89.3,0,0,0,4,0,0,1003.3,1017.5
36,2021-05-03T00:35:00,0.6,西南西,2,西,8.4,89.3,0,0,0,4,0,0,1003.3,1017.5
37,2021-05-03T00:36:00,0.5,西南西,1.7,西,8.6,89.6,0,0,0,4,0,0,1003.3,1017.5
38,2021-05-03T00:37:00,0.5,西南西,1.8,西南西,8.6,90,0,0,0,4,0,0,1003.3,1017.5
39,2021-05-03T00:38:00,0.6,西南西,1.8,西南西,8.5,88.8,0,0,0,4,0,0,1003.4,1017.6
40,2021-05-03T00:39:00,0.5,西南西,1.8,西南西,8.4,88.2,0,0,0,4,0,0,1003.4,1017.6
41,2021-05-03T00:40:00,0.5,西南西,1.8,西南西,8.4,87.6,0,0,0,4,0,0,1003.4,1017.6
42,2021-05-03T00:41:00,0.4,西南西,1.8,西南西,8.5,87.8,0,0,0,4,0,0,1003.4,1017.6
43,2021-05-03T00:42:00,0.4,西南西,1.8,西南西,8.6,88.4,0,0,0,4,0,0,1003.4,1017.6
44,2021-05-03T00:43:00,0.4,西南西,1.8,西南西,8.6,88,0,0,0,4,0,0,1003.4,1017.6
45,2021-05-03T00:44:00,0.4,西南西,1.8,西南西,8.7,87.9,0,0,0,4,0,0,1003.4,1017.6
46,2021-05-03T00:45:00,0.4,西南西,1.8,西南西,8.6,87.7,0,0,0,4,0,0,1003.4,1017.6
47,2021-05-03T00:46:00,0.4,西南西,1.8,西南西,8.5,87.3,0,0,0,4,0,0,1003.4,1017.6
48,2021-05-03T00:47:00,0.3,西南西,1.7,西南西,8.5,87.1,0,0,0,4,0,0,1003.3,1017.5
49,2021-05-03T00:48:00,0.2,静穏,0.8,西南西,8.5,87.5,0,0,0,4,0,0,1003.3,1017.5
50,2021-05-03T00:49:00,0.2,静穏,0.8,西南西,8.5,87.7,0,0,0,4,0,0,1003.3,1017.5
51,2021-05-03T00:50:00,0.2,静穏,0.7,西南西,8.5,88.3,0,0,0,4,0,0,1003.3,1017.5
52,2021-05-03T00:51:00,0.3,南西,0.7,西南西,8.5,88.6,0,0,0,4,0,0,1003.4,1017.6
53,2021-05-03T00:52:00,0.3,南南西,0.7,西南西,8.5,88.9,0,0,0,4,0,0,1003.4,1017.6
54,2021-05-03T00:53:00,0.3,東,1.1,東北東,8.6,89.4,0,0,0,4,0,0,1003.4,1017.6
55,2021-05-03T00:54:00,0.3,東北東,1.1,東北東,8.5,89.5,0,0,0,4,0,0,1003.4,1017.6
56,2021-05-03T00:55:00,0.3,東北東,1.1,東北東,8.5,89.1,0,0,0,4,0,0,1003.4,1017.6
57,2021-05-03T00:56:00,0.4,東北東,1.1,東北東,8.5,89.2,0,0,0,4,0,0,1003.4,1017.6
58,2021-05-03T00:57:00,0.4,東北東,1.1,東北東,8.4,89.2,0,0,0,4,0,0,1003.5,1017.7
59,2021-05-03T00:58:00,0.5,北東,1.9,西,8.4,89,0,0,0,4,0,0,1003.5,1017.7
60,2021-05-03T00:59:00,0.6,北,2.4,西,8.4,88.8,0,0,0,4,0,0,1003.5,1017.7
61,2021-05-03T01:00:00,0.8,北西,2.6,西,8.3,88.4,0,0,0,4,0,0,1003.5,1017.7
62,2021-05-03T01:01:00,0.9,西北西,2.6,西,8.3,88.4,0,0,0,4,0,0,1003.4,1017.6
63,2021-05-03T01:02:00,1,西,2.6,西,8.3,88.3,0,0,0,4,0,0,1003.4,1017.6
64,2021-05-03T01:03:00,1,西,2.6,西,8.3,88.3,0,0,0,4,0,0,1003.4,1017.6
65,2021-05-03T01:04:00,1.1,西,2.6,西,8.3,88.4,0,0,0,4,0,0,1003.4,1017.6
66,2021-05-03T01:05:00,1.3,西,2.6,西,8.3,88.4,0,0,0,4,0,0,1003.4,1017.6
67,2021-05-03T01:06:00,1.3,西,2.6,西,8.3,88.5,0,0,0,4,0,0,1003.4,1017.6
68,2021-05-03T01:07:00,1.4,西,2.6,西,8.3,88.7,0,0,0,4,0,0,1003.4,1017.6
69,2021-05-03T01:08:00,1.2,西,2.6,西,8.3,88.9,0,0,0,4,0,0,1003.4,1017.6
70,2021-05-03T01:09:00,1.1,西,2.6,西,8.3,89,0,0,0,4,0,0,1003.4,1017.6
71,2021-05-03T01:10:00,1.1,西,2.4,西,8.4,89.2,0,0,0,4,0,0,1003.4,1017.6
72,2021-05-03T01:11:00,1,西,2.1,西,8.3,89,0,0,0,4,0,0,1003.4,1017.6
73,2021-05-03T01:12:00,0.9,西,2.1,西,8.2,88.8,0,0,0,4,0,0,1003.3,1017.5
74,2021-05-03T01:13:00,0.8,西,2.1,西,8.1,88.5,0,0,0,4,0,0,1003.3,1017.5
75,2021-05-03T01:14:00,0.8,西,2.1,西,8,88.6,0,0,0,4,0,0,1003.3,1017.5
76,2021-05-03T01:15:00,0.8,西,2.1,西,8,88.8,0,0,0,4,0,0,1003.3,1017.5
77,2021-05-03T01:16:00,0.8,西,2.1,西,8.2,89.4,0,0,0,4,0,0,1003.3,1017.5
78,2021-05-03T01:17:00,0.8,西,2.1,西,8.3,90,0,0,0,4,0,0,1003.3,1017.5
79,2021-05-03T01:18:00,0.9,西,2.1,西,8.3,89.8,0,0,0,4,0,0,1003.3,1017.5
80,2021-05-03T01:19:00,0.9,西,2.1,西,8.3,89.8,0,0,0,4,0,0,1003.3,1017.5
81,2021-05-03T01:20:00,0.9,西,2.1,西,8.4,89.7,0,0,0,4,0,0,1003.4,1017.6
82,2021-05-03T01:21:00,1,西,2.1,西,8.3,89.5,0,0,0,4,0,0,1003.4,1017.6
83,2021-05-03T01:22:00,1,西北西,2.1,西,8.4,89.5,0,0,0,4,0,0,1003.4,1017.6
84,2021-05-03T01:23:00,1.1,西北西,2.1,西,8.4,89.4,0,0,0,4,0,0,1003.4,1017.6
85,2021-05-03T01:24:00,1.1,西北西,2.1,西,8.1,88.4,0,0,0,4,0,0,1003.4,1017.6
86,2021-05-03T01:25:00,1.1,西北西,1.7,西,8.3,89,0,0,0,4,0,0,1003.4,1017.6
87,2021-05-03T01:26:00,1.1,西北西,1.7,西,8.3,89.1,0,0,0,4,0,0,1003.4,1017.6
88,2021-05-03T01:27:00,1.1,西北西,1.7,西,8.4,89.6,0,0,0,4,0,0,1003.4,1017.6
89,2021-05-03T01:28:00,1.1,西北西,1.7,西,8.3,89.5,0,0,0,4,0,0,1003.4,1017.6
90,2021-05-03T01:29:00,1.1,西北西,1.7,西,8.3,89.3,0,0,0,4,0,0,1003.4,1017.6
91,2021-05-03T01:30:00,1,西北西,1.7,西,8.3,89.3,0,0,0,4,0,0,1003.4,1017.6
92,2021-05-03T01:31:00,0.9,西北西,1.7,西,8.2,89,0,0,0,4,0,0,1003.4,1017.6
93,2021-05-03T01:32:00,0.9,西北西,1.7,西,8.1,88.8,0,0,0,4,0,0,1003.4,1017.6
94,2021-05-03T01:33:00,0.8,西北西,1.5,西,8.2,89.1,0,0,0,4,0,0,1003.4,1017.6
95,2021-05-03T01:34:00,0.7,西北西,1.5,西,8.2,89.4,0,0,0,4,0,0,1003.4,1017.6
96,2021-05-03T01:35:00,0.6,西北西,1.4,北西,8.1,89.5,0,0,0,4,0,0,1003.4,1017.6
97,2021-05-03T01:36:00,0.5,西北西,1.4,北西,8.1,89.5,0,0,0,4,0,0,1003.4,1017.6
98,2021-05-03T01:37:00,0.5,西北西,1.4,北西,8.3,89.6,0,0,0,4,0,0,1003.4,1017.6
99,2021-05-03T01:38:00,0.4,西北西,1.2,北西,8.2,90.2,0,0,0,4,0,0,1003.5,1017.7
100,2021-05-03T01:39:00,0.3,西,0.8,西南西,8,89.5,0,0,0,4,0,0,1003.5,1017.7
101,2021-05-03T01:40:00,0.4,西,0.8,西南西,8,89.2,0,0,0,4,0,0,1003.5,1017.7
102,2021-05-03T01:41:00,0.3,西北西,0.8,西南西,7.9,89.3,0,0,0,4,0,0,1003.5,1017.7
103,2021-05-03T01:42:00,0.3,西北西,0.8,西南西,7.9,89.6,0,0,0,4,0,0,1003.5,1017.7
104,2021-05-03T01:43:00,0.3,西北西,0.8,西南西,8,90.2,0,0,0,4,0,0,1003.5,1017.7
105,2021-05-03T01:44:00,0.3,西北西,0.8,西南西,8,90.5,0,0,0,4,0,0,1003.5,1017.7
106,2021-05-03T01:45:00,0.3,西北西,0.8,西南西,8,90.5,0,0,0,4,0,0,1003.5,1017.7
107,2021-05-03T01:46:00,0.3,西北西,0.8,西南西,8,90.6,0,0,0,4,0,0,1003.5,1017.7
108,2021-05-03T01:47:00,0.3,西北西,0.8,西南西,8.1,91,0,0,0,4,0,0,1003.5,1017.7
109,2021-05-03T01:48:00,0.3,北西,0.7,北西,8,90.8,0,0,0,4,0,0,1003.5,1017.7
110,2021-05-03T01:49:00,0.2,静穏,0.7,北西,7.9,90.6,0,0,0,4,0,0,1003.5,1017.7
111,2021-05-03T01:50:00,0.2,静穏,0.7,北西,8,90.9,0,0,0,4,0,0,1003.6,1017.8
112,2021-05-03T01:51:00,0.2,静穏,0.7,北西,7.9,90.9,0,0,0,4,0,0,1003.6,1017.8
113,2021-05-03T01:52:00,0.2,静穏,0.7,南南西,7.8,90.8,0,0,0,4,0,0,1003.5,1017.7
114,2021-05-03T01:53:00,0.2,静穏,1,南南西,7.8,90.8,0,0,0,4,0,0,1003.5,1017.7
115,2021-05-03T01:54:00,0.2,静穏,1.4,南南西,7.8,91,0,0,0,4,0,0,1003.6,1017.8
116,2021-05-03T01:55:00,0.4,西南西,1.4,南南西,7.8,91.2,0,0,0,4,0,0,1003.6,1017.8
117,2021-05-03T01:56:00,0.5,南西,1.6,南西,7.7,91.3,0,0,0,4,0,0,1003.6,1017.8
118,2021-05-03T01:57:00,0.7,南西,1.7,南南西,7.6,91,0,0,0,4,0,0,1003.7,1017.9
119,2021-05-03T01:58:00,0.8,南南西,1.8,南南西,7.5,91,0,0,0,4,0,0,1003.7,1017.9
120,2021-05-03T01:59:00,1,南南西,2.2,南,7.4,91.2,0,0,0,4,0,0,1003.7,1017.9
121,2021-05-03T02:00:00,1.1,南南西,2.2,南,7.5,91.8,0,0,0,4,0,0,1003.7,1017.9
122,2021-05-03T02:01:00,1.2,南南西,2.2,南,7.5,92.3,0,0,0,4,0,0,1003.7,1017.9
123,2021-05-03T02:02:00,1.3,南南西,2.2,南,7.5,92.4,0,0,0,4,0,0,1003.8,1018
124,2021-05-03T02:03:00,1.4,南南西,2.2,南,7.4,92.5,0,0,0,4,0,0,1003.8,1018
125,2021-05-03T02:04:00,1.4,南南西,2.2,南,7.5,93.1,0,0,0,4,0,0,1003.8,1018
126,2021-05-03T02:05:00,1.3,南南西,2.2,南,7.5,93.1,0,0,0,4,0,0,1003.8,1018
127,2021-05-03T02:06:00,1.2,南南西,2.2,南,7.6,93.6,0,0,0,4,0,0,1003.8,1018
128,2021-05-03T02:07:00,1.1,南南西,2.2,南,7.7,94.2,0,0,0,4,0,0,1003.8,1018
129,2021-05-03T02:08:00,0.9,南南西,2.2,南,7.7,94,0,0,0,4,0,0,1003.8,1018
130,2021-05-03T02:09:00,0.8,南南西,2,南南西,7.6,93.8,0,0,0,4,0,0,1003.8,1018
131,2021-05-03T02:10:00,0.7,南南西,1.8,南南西,7.7,93.6,0,0,0,4,0,0,1003.9,1018.1
132,2021-05-03T02:11:00,0.5,南南西,1.6,南南西,7.7,93.8,0,0,0,4,0,0,1003.8,1018
133,2021-05-03T02:12:00,0.4,南南西,1.5,南南西,7.6,93.5,0,0,0,4,0,0,1003.9,1018.1
134,2021-05-03T02:13:00,0.3,南南西,1.1,南南西,7.6,93.3,0,0,0,4,0,0,1003.9,1018.1
135,2021-05-03T02:14:00,0.3,南西,1.1,南南西,7.6,93.2,0,0,0,4,0,0,1003.9,1018.1
136,2021-05-03T02:15:00,0.3,南西,0.8,西南西,7.4,93.1,0,0,0,4,0,0,1003.9,1018.2
137,2021-05-03T02:16:00,0.3,南西,0.8,西南西,7.4,92.8,0,0,0,4,0,0,1004,1018.3
138,2021-05-03T02:17:00,0.3,南西,1.1,南西,7.5,93,0,0,0,4,0,0,1004,1018.2
139,2021-05-03T02:18:00,0.3,西南西,1.1,南西,7.6,93.6,0,0,0,4,0,0,1004,1018.2
140,2021-05-03T02:19:00,0.3,南西,1.1,南西,7.5,93.5,0,0,0,4,0,0,1004,1018.2
141,2021-05-03T02:20:00,0.3,南西,1.1,南西,7.6,93.6,0,0,0,4,0,0,1004,1018.2
142,2021-05-03T02:21:00,0.3,南西,1.1,南西,7.6,93.8,0,0,0,4,0,0,1004,1018.2
143,2021-05-03T02:22:00,0.4,西南西,1.1,南西,7.7,93.7,0,0,0,4,0,0,1004,1018.2
144,2021-05-03T02:23:00,0.3,南西,1.1,南西,7.6,93.8,0,0,0,4,0,0,1004,1018.2
145,2021-05-03T02:24:00,0.3,南西,1.1,南西,7.4,93.3,0,0,0,4,0,0,1003.9,1018.2
146,2021-05-03T02:25:00,0.3,南南西,1.1,南西,7.5,92.9,0,0,0,4,0,0,1003.9,1018.1
147,2021-05-03T02:26:00,0.3,南南西,1.1,南西,7.6,93.4,0,0,0,4,0,0,1003.9,1018.1
148,2021-05-03T02:27:00,0.2,静穏,0.8,南南西,7.6,93.7,0,0,0,4,0,0,1004,1018.2
149,2021-05-03T02:28:00,0.3,南南西,1,南西,7.5,93.2,0,0,0,4,0,0,1003.9,1018.1
150,2021-05-03T02:29:00,0.3,南南西,1.1,南西,7.4,93.1,0,0,0,4,0,0,1004,1018.3
151,2021-05-03T02:30:00,0.4,南西,1.1,南西,7.4,92.9,0,0,0,4,0,0,1004,1018.3
152,2021-05-03T02:31:00,0.5,南西,1.1,南西,7.4,92.8,0,0,0,4,0,0,1004,1018.3
153,2021-05-03T02:32:00,0.5,南西,2.1,西,7.3,92.7,0,0,0,4,0,0,1004,1018.3
154,2021-05-03T02:33:00,0.7,南西,2.3,西,7.3,92.8,0,0,0,4,0,0,1004.1,1018.4
155,2021-05-03T02:34:00,0.9,南西,2.4,西南西,7.2,92.8,0,0,0,4,0,0,1004.1,1018.4
156,2021-05-03T02:35:00,1,西南西,3.1,西,7,92.5,0,0,0,4,0,0,1004.1,1018.4
157,2021-05-03T02:36:00,1.2,西南西,3.1,西,7,92.4,0,0,0,4,0,0,1004.1,1018.4
158,2021-05-03T02:37:00,1.3,西南西,3.1,西,7,92.7,0,0,0,4,0,0,1004.2,1018.5
159,2021-05-03T02:38:00,1.4,西南西,3.1,西,7,93.2,0,0,0,4,0,0,1004.2,1018.5
160,2021-05-03T02:39:00,1.5,西南西,3.1,西,7,93.4,0,0,0,4,0,0,1004.2,1018.5
161,2021-05-03T02:40:00,1.5,西南西,3.1,西,7,93.4,0,0,0,4,0,0,1004.2,1018.5
162,2021-05-03T02:41:00,1.5,西南西,3.1,西,7,93.8,0,0,0,4,0,0,1004.2,1018.5
163,2021-05-03T02:42:00,1.5,西南西,3.1,西,7,93.9,0,0,0,4,0,0,1004.1,1018.4
164,2021-05-03T02:43:00,1.3,西南西,3.1,西,7.1,94.1,0,0,0,4,0,0,1004.2,1018.5
165,2021-05-03T02:44:00,1.2,西南西,3.1,西,7,94.3,0,0,0,4,0,0,1004.2,1018.5
166,2021-05-03T02:45:00,1.1,南西,2.9,西,7,93.9,0,0,0,4,0,0,1004.2,1018.5
167,2021-05-03T02:46:00,0.9,南西,2.3,西,7,94.1,0,0,0,4,0,0,1004.1,1018.4
168,2021-05-03T02:47:00,0.9,南西,2.3,西,7.1,94.5,0,0,0,4,0,0,1004.2,1018.5
169,2021-05-03T02:48:00,0.8,南西,2.1,西南西,7.2,94.4,0,0,0,4,0,0,1004.2,1018.5
170,2021-05-03T02:49:00,0.7,南西,1.7,西南西,7.2,94.6,0,0,0,4,0,0,1004.2,1018.5
171,2021-05-03T02:50:00,0.6,南南西,1.3,南南西,7.2,94.8,0,0,0,4,0,0,1004.2,1018.5
172,2021-05-03T02:51:00,0.6,南西,1.3,南南西,7.1,94.3,0,0,0,4,0,0,1004.2,1018.5
173,2021-05-03T02:52:00,0.5,南西,1.3,南南西,7.2,94.1,0,0,0,4,0,0,1004.2,1018.5
174,2021-05-03T02:53:00,0.5,南南西,1.3,南南西,7,94,0,0,0,4,0,0,1004.2,1018.5
175,2021-05-03T02:54:00,0.5,南南西,1.3,南南西,6.9,93.6,0,0,0,4,0,0,1004.2,1018.5
176,2021-05-03T02:55:00,0.4,南南西,1.3,南南西,7,93.9,0,0,0,4,0,0,1004.3,1018.6
177,2021-05-03T02:56:00,0.3,南南西,1.1,南南西,7.1,94.5,0,0,0,4,0,0,1004.2,1018.5
178,2021-05-03T02:57:00,0.2,静穏,0.8,南,7.1,94,0,0,0,4,0,0,1004.2,1018.5
179,2021-05-03T02:58:00,0.2,静穏,0.7,南西,6.9,93.8,0,0,0,4,0,0,1004.2,1018.5
180,2021-05-03T02:59:00,0.2,静穏,0.7,南西,6.9,93.5,0,0,0,4,0,0,1004.2,1018.5
181,2021-05-03T03:00:00,0.2,静穏,0.7,南西,7.1,94.1,0,0,0,4,0,0,1004.3,1018.6
182,2021-05-03T03:01:00,0.2,静穏,0.7,南西,7.2,94.4,0,0,0,4,0,0,1004.3,1018.6
183,2021-05-03T03:02:00,0.2,静穏,0.7,南西,6.8,93.9,0,0,0,4,0,0,1004.3,1018.6
184,2021-05-03T03:03:00,0.2,静穏,0.7,南西,6.8,93.4,0,0,0,4,0,0,1004.3,1018.6
185,2021-05-03T03:04:00,0.2,静穏,0.7,南西,6.7,93.2,0,0,0,4,0,0,1004.3,1018.6
186,2021-05-03T03:05:00,0.2,静穏,0.7,南西,6.8,93.7,0,0,0,4,0,0,1004.3,1018.6
187,2021-05-03T03:06:00,0.3,南西,0.7,南西,6.9,94.1,0,0,0,4,0,0,1004.3,1018.6
188,2021-05-03T03:07:00,0.2,静穏,0.7,南南東,6.9,94.2,0,0,0,4,0,0,1004.4,1018.7
189,2021-05-03T03:08:00,0.2,静穏,0.7,南南東,6.8,94.1,0,0,0,4,0,0,1004.4,1018.7
190,2021-05-03T03:09:00,0.2,静穏,0.7,南南東,6.7,93.7,0,0,0,4,0,0,1004.4,1018.7
191,2021-05-03T03:10:00,0.2,静穏,0.7,南南東,6.7,93.7,0,0,0,4,0,0,1004.4,1018.7
192,2021-05-03T03:11:00,0.3,南南西,0.8,南南西,6.7,93.8,0,0,0,4,0,0,1004.5,1018.8
193,2021-05-03T03:12:00,0.3,南,0.8,南南西,6.7,94,0,0,0,4,0,0,1004.5,1018.8
194,2021-05-03T03:13:00,0.2,静穏,0.8,南南西,6.8,94.5,0,0,0,4,0,0,1004.6,1018.9
195,2021-05-03T03:14:00,0.2,静穏,0.8,南南西,6.7,94.5,0,0,0,4,0,0,1004.6,1018.9
196,2021-05-03T03:15:00,0.2,静穏,0.8,南南西,6.7,94.3,0,0,0,4,0,0,1004.6,1018.9
197,2021-05-03T03:16:00,0.2,静穏,0.8,南南西,6.7,94.6,0,0,0,4,0,0,1004.6,1018.9
198,2021-05-03T03:17:00,0.1,静穏,0.8,南南西,6.6,94.7,0,0,0,4,0,0,1004.6,1018.9
199,2021-05-03T03:18:00,0.1,静穏,0.8,南南西,6.5,94.2,0,0,0,4,0,0,1004.6,1018.9
200,2021-05-03T03:19:00,0.2,静穏,0.8,南南西,6.6,94.3,0,0,0,4,0,0,1004.6,1018.9
201,2021-05-03T03:20:00,0.2,静穏,0.8,南南西,6.7,94.7,0,0,0,4,0,0,1004.7,1019
202,2021-05-03T03:21:00,0.2,静穏,0.6,西北西,6.6,94.6,0,0,0,4,0,0,1004.7,1019
203,2021-05-03T03:22:00,0.2,静穏,0.7,西北西,6.6,94.6,0,0,0,4,0,0,1004.7,1019
204,2021-05-03T03:23:00,0.3,西北西,0.8,西北西,6.6,94.6,0,0,0,4,0,0,1004.7,1019
205,2021-05-03T03:24:00,0.3,西北西,0.8,西北西,6.5,94.5,0,0,0,4,0,0,1004.7,1019
206,2021-05-03T03:25:00,0.4,西北西,0.8,西北西,6.5,94.5,0,0,0,4,0,0,1004.7,1019
207,2021-05-03T03:26:00,0.5,西北西,0.8,西北西,6.5,94.7,0,0,0,4,0,0,1004.7,1019
208,2021-05-03T03:27:00,0.5,西北西,0.8,西北西,6.5,94.8,0,0,0,4,0,0,1004.7,1019
209,2021-05-03T03:28:00,0.5,西北西,0.8,西北西,6.5,94.6,0,0,0,4,0,0,1004.7,1019
210,2021-05-03T03:29:00,0.6,西北西,0.8,西北西,6.5,94.7,0,0,0,4,0,0,1004.7,1019
211,2021-05-03T03:30:00,0.6,西北西,0.9,西北西,6.5,94.9,0,0,0,4,0,0,1004.7,1019
212,2021-05-03T03:31:00,0.7,西北西,1.2,西,6.5,95,0,0,0,4,0,0,1004.8,1019.1
213,2021-05-03T03:32:00,0.7,西北西,1.3,西,6.5,94.8,0,0,0,4,0,0,1004.8,1019.1
214,2021-05-03T03:33:00,0.8,西,1.3,西,6.5,94.9,0,0,0,4,0,0,1004.8,1019.1
215,2021-05-03T03:34:00,0.8,西,1.3,西,6.6,95.2,0,0,0,4,0,0,1004.8,1019.1
216,2021-05-03T03:35:00,0.8,西,1.3,西,6.4,94.8,0,0,0,4,0,0,1004.8,1019.1
217,2021-05-03T03:36:00,0.8,西,1.3,西,6.4,94.4,0,0,0,4,0,0,1004.8,1019.1
218,2021-05-03T03:37:00,0.8,西,1.3,西,6.4,94.7,0,0,0,4,0,0,1004.9,1019.2
219,2021-05-03T03:38:00,0.8,西,1.3,西,6.5,95.2,0,0,0,4,0,0,1004.8,1019.1
220,2021-05-03T03:39:00,0.9,西,1.4,西北西,6.4,94.9,0,0,0,4,0,0,1004.9,1019.2
221,2021-05-03T03:40:00,0.9,西,1.4,西北西,6.5,95,0,0,0,4,0,0,1004.8,1019.1
222,2021-05-03T03:41:00,0.9,西,1.4,西北西,6.6,95.3,0,0,0,4,0,0,1004.9,1019.2
223,2021-05-03T03:42:00,0.8,西,1.4,西北西,6.3,95,0,0,0,4,0,0,1004.9,1019.2
224,2021-05-03T03:43:00,0.7,西,1.4,西北西,6.4,94.5,0,0,0,4,0,0,1004.8,1019.1
225,2021-05-03T03:44:00,0.6,西,1.4,西北西,6.4,94.7,0,0,0,4,0,0,1004.8,1019.1
226,2021-05-03T03:45:00,0.5,西,1.4,西北西,6.5,95.2,0,0,0,4,0,0,1004.8,1019.1
227,2021-05-03T03:46:00,0.6,西,1.4,西北西,6.5,95.3,0,0,0,4,0,0,1004.8,1019.1
228,2021-05-03T03:47:00,0.6,西北西,1.4,西北西,6.5,95.2,0,0,0,4,0,0,1004.8,1019.1
229,2021-05-03T03:48:00,0.5,西北西,1.4,西北西,6.6,95.3,0,0,0,4,0,0,1004.8,1019.1
230,2021-05-03T03:49:00,0.4,西北西,1.3,西北西,6.5,95.2,0,0,0,4,0,0,1004.8,1019.1
231,2021-05-03T03:50:00,0.3,北西,1.2,西,6.4,94.9,0,0,0,4,0,0,1004.7,1019
232,2021-05-03T03:51:00,0.2,静穏,0.8,北西,6.4,94.9,0,0,0,4,0,0,1004.7,1019
233,2021-05-03T03:52:00,0.2,静穏,0.8,北西,6.5,95.1,0,0,0,4,0,0,1004.8,1019.1
234,2021-05-03T03:53:00,0.2,静穏,0.8,北西,6.5,95.3,0,0,0,4,0,0,1004.9,1019.2
235,2021-05-03T03:54:00,0.3,北北西,1.6,西北西,6.4,95,0,0,0,4,0,0,1004.9,1019.2
236,2021-05-03T03:55:00,0.5,北北西,2.2,西北西,6.4,95.2,0,0,0,4,0,0,1004.9,1019.2
237,2021-05-03T03:56:00,0.5,北北西,2.2,西北西,6.3,94.9,0,0,0,4,0,0,1004.9,1019.2
238,2021-05-03T03:57:00,0.5,北北西,2.2,西北西,6.2,94.7,0,0,0,4,0,0,1004.9,1019.2
239,2021-05-03T03:58:00,0.5,北北西,2.2,西北西,6.2,94.5,0,0,0,4,0,0,1004.8,1019.1
240,2021-05-03T03:59:00,0.5,北北西,2.2,西北西,6.2,94.9,0,0,0,4,0,0,1004.9,1019.2
241,2021-05-03T04:00:00,0.5,北西,2.2,西北西,6.2,94.8,0,0,0,4,0,0,1004.9,1019.2
242,2021-05-03T04:01:00,0.6,西北西,2.2,西北西,6.2,95.1,0,0,0,4,0,0,1004.9,1019.2
243,2021-05-03T04:02:00,0.6,西北西,2.2,西北西,6.3,94.8,0,0,0,4,0,0,1004.9,1019.2
244,2021-05-03T04:03:00,0.7,西北西,2.2,西北西,6.3,95.3,0,0,0,4,0,0,1004.9,1019.2
245,2021-05-03T04:04:00,0.7,西北西,2.2,西北西,6.2,94.8,0,0,0,4,0,0,1004.9,1019.2
246,2021-05-03T04:05:00,0.6,西,1.7,西北西,6.2,94.7,0,0,0,4,0,0,1004.9,1019.2
247,2021-05-03T04:06:00,0.5,西,1.5,西,6.2,94.9,0,0,0,4,0,0,1005,1019.3
248,2021-05-03T04:07:00,0.6,西,1.5,西,6.4,95.2,0,0,0,4,0,0,1005,1019.3
249,2021-05-03T04:08:00,0.7,西,1.5,西,6.5,95.6,0,0,0,4,0,0,1004.9,1019.2
250,2021-05-03T04:09:00,0.7,西,1.5,西,6.4,95.6,0,0,0,4,0,0,1005,1019.3
